| time (UTC) | temp C | wind direction | speed KPH | gust KPH | rain 1hr cm | rain 24hr cm | rain mn cm | humidity % | barometer mb |
| 20260502183035 | 7 | 289 | 4.8 | 16.1 | 0.00 | 0.00 | 0.00 | 44 | 1015.4 |
| 20260502181535 | 7 | 323 | 0.0 | 12.9 | 0.00 | 0.00 | 0.00 | 43 | 1015.5 |
| 20260502163005 | 7 | 327 | 1.6 | 17.7 | 0.00 | 0.00 | 0.00 | 47 | 1016.0 |
| 20260502161501 | 6 | 295 | 6.4 | 19.3 | 0.00 | 0.00 | 0.00 | 46 | 1016.0 |
| 20260502151544 | 6 | 279 | 1.6 | 11.3 | 0.00 | 0.00 | 0.00 | 56 | 1015.9 |
| 20260502123104 | 3 | 100 | 0.0 | 4.8 | 0.00 | 0.00 | 0.00 | 9 | 1016.0 |
| 20260502121555 | 3 | 100 | 0.0 | 0.0 | 0.00 | 0.00 | 0.00 | 1 | 1016.0 |
| 20260502114548 | 2 | 360 | 0.0 | 0.0 | 0.00 | 0.00 | 0.00 | 1 | 1015.9 |
| 20260502113040 | 2 | 100 | 0.0 | 1.6 | 0.00 | 0.00 | 0.00 | 1 | 1015.8 |
| 20260502111534 | 1 | 100 | 0.0 | 0.0 | 0.00 | 0.00 | 0.00 | 1 | 1015.7 |
| 20260502110033 | 2 | 100 | 0.0 | 1.6 | 0.00 | 0.00 | 0.00 | 1 | 1015.6 |
| 20260502104526 | 2 | 100 | 0.0 | 0.0 | 0.00 | 0.00 | 0.00 | 1 | 1015.5 |
| 20260502103022 | 2 | 100 | 0.0 | 0.0 | 0.00 | 0.00 | 0.00 | 1 | 1015.4 |
| 20260502101517 | 2 | 100 | 0.0 | 0.0 | 0.00 | 0.00 | 0.00 | 1 | 1015.4 |
| 20260502071529 | 3 | 100 | 0.0 | 0.0 | 0.00 | 0.00 | 0.00 | 5 | 1014.7 |
| 20260502070036 | 3 | 100 | 0.0 | 0.0 | 0.00 | 0.00 | 0.00 | 5 | 1014.8 |
| 20260502064535 | 3 | 100 | 0.0 | 0.0 | 0.00 | 0.00 | 0.00 | 6 | 1014.8 |
| 20260502063017 | 3 | 100 | 0.0 | 0.0 | 0.00 | 0.00 | 0.00 | 8 | 1014.9 |
| 20260502061513 | 3 | 100 | 0.0 | 0.0 | 0.00 | 0.00 | 0.00 | 11 | 1015.0 |
| 20260502060013 | 3 | 100 | 0.0 | 3.2 | 0.00 | 0.00 | 0.00 | 16 | 1015.2 |
| 20260502054508 | 3 | 100 | 0.0 | 4.8 | 0.00 | 0.00 | 0.00 | 21 | 1015.2 |
| 20260502053002 | 3 | 99 | 1.6 | 6.4 | 0.00 | 0.00 | 0.00 | 24 | 1015.2 |
| 20260502051603 | 4 | 96 | 1.6 | 9.7 | 0.00 | 0.00 | 0.00 | 25 | 1015.1 |
| 20260502050058 | 4 | 98 | 3.2 | 16.1 | 0.00 | 0.00 | 0.00 | 31 | 1015.1 |
| 20260502044557 | 4 | 92 | 3.2 | 14.5 | 0.00 | 0.00 | 0.00 | 32 | 1015.0 |
| 20260502043059 | 5 | 70 | 1.6 | 9.7 | 0.00 | 0.00 | 0.00 | 39 | 1014.8 |
| 20260502041551 | 5 | 94 | 1.6 | 12.9 | 0.00 | 0.00 | 0.00 | 44 | 1014.7 |
| 20260502040045 | 5 | 105 | 3.2 | 14.5 | 0.00 | 0.00 | 0.00 | 45 | 1014.4 |
| 20260502034541 | 6 | 27 | 1.6 | 9.7 | 0.00 | 0.00 | 0.00 | 56 | 1014.2 |
| 20260502033041 | 6 | 329 | 0.0 | 0.0 | 0.00 | 0.00 | 0.00 | 57 | 1014.1 |
| 20260502031538 | 6 | 331 | 1.6 | 4.8 | 0.00 | 0.00 | 0.00 | 57 | 1014.1 |
| 20260502030034 | 6 | 350 | 0.0 | 6.4 | 0.00 | 0.00 | 0.00 | 58 | 1014.0 |
| 20260502024529 | 6 | 360 | 0.0 | 3.2 | 0.00 | 0.00 | 0.00 | 58 | 1013.9 |
| 20260502023025 | 6 | 360 | 0.0 | 3.2 | 0.00 | 0.00 | 0.00 | 58 | 1014.0 |
| 20260502021520 | 6 | 360 | 1.6 | 6.4 | 0.00 | 0.00 | 0.00 | 58 | 1014.0 |
| 20260502020016 | 6 | 360 | 0.0 | 8.0 | 0.00 | 0.00 | 0.00 | 58 | 1013.7 |
| 20260502014529 | 6 | 360 | 1.6 | 9.7 | 0.00 | 0.00 | 0.00 | 58 | 1013.6 |
| 20260502013008 | 6 | 360 | 0.0 | 6.4 | 0.00 | 0.00 | 0.00 | 57 | 1013.6 |
| 20260502011503 | 7 | 360 | 0.0 | 9.7 | 0.00 | 0.00 | 0.00 | 57 | 1013.4 |
| 20260502004603 | 7 | 360 | 0.0 | 4.8 | 0.00 | 0.00 | 0.00 | 57 | 1013.2 |
| 20260502003051 | 7 | 360 | 1.6 | 8.0 | 0.00 | 0.00 | 0.00 | 57 | 1013.1 |
| 20260502001546 | 7 | 324 | 0.0 | 4.8 | 0.00 | 0.00 | 0.00 | 57 | 1013.1 |
| 20260502000052 | 7 | 327 | 1.6 | 9.7 | 0.00 | 0.00 | 0.00 | 57 | 1012.9 |
| 20260501234537 | 7 | 323 | 0.0 | 8.0 | 0.00 | 0.00 | 0.00 | 57 | 1012.8 |
| 20260501233033 | 7 | 339 | 1.6 | 14.5 | 0.00 | 0.00 | 0.00 | 57 | 1012.6 |
| 20260501231528 | 7 | 355 | 0.0 | 17.7 | 0.00 | 0.00 | 0.00 | 57 | 1012.5 |
| 20260501230027 | 8 | 9 | 6.4 | 16.1 | 0.00 | 0.00 | 0.00 | 56 | 1012.5 |
| 20260501224520 | 8 | 319 | 3.2 | 14.5 | 0.00 | 0.00 | 0.00 | 56 | 1012.4 |
| 20260501223015 | 8 | 309 | 1.6 | 14.5 | 0.00 | 0.00 | 0.00 | 55 | 1012.4 |
| 20260501221518 | 8 | 325 | 0.0 | 6.4 | 0.00 | 0.00 | 0.00 | 54 | 1012.2 |
| 20260501220012 | 8 | 327 | 1.6 | 9.7 | 0.00 | 0.00 | 0.00 | 53 | 1012.1 |
| 20260501214501 | 8 | 322 | 3.2 | 16.1 | 0.00 | 0.00 | 0.00 | 55 | 1012.1 |
| 20260501213105 | 8 | 313 | 3.2 | 12.9 | 0.00 | 0.00 | 0.00 | 53 | 1012.0 |
| 20260501211600 | 8 | 321 | 1.6 | 11.3 | 0.00 | 0.00 | 0.00 | 52 | 1011.7 |
| 20260501210057 | 8 | 311 | 1.6 | 12.9 | 0.00 | 0.00 | 0.00 | 53 | 1011.6 |
| 20260501204601 | 8 | 323 | 1.6 | 16.1 | 0.00 | 0.00 | 0.00 | 53 | 1011.7 |
| 20260501203057 | 9 | 292 | 3.2 | 12.9 | 0.00 | 0.00 | 0.00 | 50 | 1011.5 |
| 20260501201609 | 10 | 360 | 1.6 | 9.7 | 0.00 | 0.00 | 0.00 | 49 | 1011.5 |
| 20260501200052 | 10 | 360 | 0.0 | 9.7 | 0.00 | 0.00 | 0.00 | 46 | 1011.4 |
| 20260501194551 | 9 | 360 | 0.0 | 8.0 | 0.00 | 0.00 | 0.00 | 49 | 1011.4 |
| 20260501193050 | 10 | 14 | 0.0 | 11.3 | 0.00 | 0.00 | 0.00 | 48 | 1011.4 |
| 20260501191546 | 10 | 322 | 1.6 | 9.7 | 0.00 | 0.00 | 0.00 | 47 | 1011.2 |
| 20260501190040 | 9 | 318 | 3.2 | 12.9 | 0.00 | 0.00 | 0.00 | 49 | 1011.2 |
| 20260501184537 | 9 | 360 | 1.6 | 12.9 | 0.00 | 0.00 | 0.00 | 49 | 1011.1 |